Notices

What's New in latest Release from April 7th, 2021:

- Updated Glossary, including Speed of Maximum Gust, and Total Hourly Precipitation

- Updated national and regional climate services offices contacts and prices information

- Addition of station inventory lists for 1981-2010, 1971-2000, and 1961-1990 Normals.

If you haven't already, please take our survey and provide feedback about our website: https://eccc.sondage-survey.ca/f/LanguageSelection.aspx?s=442ca660-fcf1-47c0-95a9-59707d6fd709

Hourly Data Report for May 19, 2003

TORONTO CITY
ONTARIO

43°40'00.000" N
79°24'00.000" W
112.50 m
6158355
71508
XTO

Download Data

Hourly Data (May 2003)
Hourly Data Report for May 19, 2003
TIME
LST
Temp Definition
°C
Dew Point Definition
°C
Rel Hum Definition
%
Precip. Amount Definition
mm

Wind Dir Definition
10's deg

Wind Spd Definition
km/h
Visibility Definition
km
Stn Press Definition
kPa
Hmdx Definition


Wind Chill Definition


Weather Definition


00:00 13.8 2.7 47   LegendMM LegendMM LegendMM 101.07     LegendNANA
01:00 13.4 3.2 50   LegendMM LegendMM LegendMM 101.08     LegendNANA
02:00 12.6 3.8 55   LegendMM LegendMM LegendMM 101.10     LegendNANA
03:00 11.6 4.6 62   LegendMM LegendMM LegendMM 101.13     LegendNANA
04:00 12.0 4.5 60   LegendMM LegendMM LegendMM 101.14     LegendNANA
05:00 11.1 4.8 65   LegendMM LegendMM LegendMM 101.18     LegendNANA
06:00 11.6 4.8 63   LegendMM LegendMM LegendMM 101.20     LegendNANA
07:00 14.0 5.6 57   LegendMM LegendMM LegendMM 101.22     LegendNANA
08:00 16.5 6.6 52   LegendMM LegendMM LegendMM 101.26     LegendNANA
09:00 18.0 6.8 48   LegendMM LegendMM LegendMM 101.23     LegendNANA
10:00 18.3 5.2 42   LegendMM LegendMM LegendMM 101.20     LegendNANA
11:00 19.0 2.0 32   LegendMM LegendMM LegendMM 101.18     LegendNANA
12:00 19.1 3.7 36   LegendMM LegendMM LegendMM 101.18     LegendNANA
13:00 19.4 3.2 34   LegendMM LegendMM LegendMM 101.14     LegendNANA
14:00 19.5 1.9 31   LegendMM LegendMM LegendMM 101.05     LegendNANA
15:00 19.3 2.2 32   LegendMM LegendMM LegendMM 101.02     LegendNANA
16:00 20.0 2.8 32   LegendMM LegendMM LegendMM 100.96     LegendNANA
17:00 19.8 3.1 33   LegendMM LegendMM LegendMM 100.94     LegendNANA
18:00 19.7 3.0 33   LegendMM LegendMM LegendMM 100.92     LegendNANA
19:00 19.0 3.2 35   LegendMM LegendMM LegendMM 100.88     LegendNANA
20:00 17.9 3.0 37   LegendMM LegendMM LegendMM 100.86     LegendNANA
21:00 16.4 2.4 39   LegendMM LegendMM LegendMM 100.84     LegendNANA
22:00 15.0 4.4 49   LegendMM LegendMM LegendMM 100.82     LegendNANA
23:00 14.1 5.7 57   LegendMM LegendMM LegendMM 100.79     LegendNANA

Notes on Data Quality.

Legend

  • E = Estimated
  • M = Missing
  • NA = Not Available*
  • [empty] = Indicates an unobserved value
Date modified: